Date String (YYYY-MM-DD hh:mm:ss) UTC,Instrument flags,Ambient pressure (hPa),Sample flow (lpm),Bypass flow (lpm),Sample temperature (°C),Ambient temperature (°C),ASC tube jacket temperature (°C),LED temperature (°C),Box temperature (°C),Sample RH (%),Span deviation,Mass concentration (μg/m³),Mass concentration (μg/m³),Mass concentration (μg/m³)
DateTimeUTC,F1_M11,P_M11,Q1_M11,Q2_M11,T1_M11,T2_M11,T3_M11,T4_M11,T5_M11,U1_M11,ZSPAN_M11,X0_M11,X2_M11,X1_M11
2023-02-08 08:00:00,,0827.1,4.97,0.00,22.2,20.7,00.0,31.0,23.9,10.1,0000.0,0011.59,0004.91,0003.99
2023-02-08 08:01:00,,0827.1,4.98,0.00,22.2,20.6,00.0,31.0,23.8,10.1,0000.0,0011.61,0004.87,0003.98
2023-02-08 08:02:00,,0827.1,4.98,0.00,22.1,20.5,00.0,31.0,23.8,10.0,0000.0,0012.03,0004.83,0003.96
2023-02-08 08:03:00,,0827.3,5.05,0.00,22.1,20.4,00.0,31.0,23.7,10.0,0000.0,0011.46,0004.82,0003.95
2023-02-08 08:04:00,,0827.4,4.99,0.00,22.1,20.4,00.0,31.0,23.7,10.0,0000.0,0011.26,0004.82,0003.93
2023-02-08 08:05:00,,0827.0,4.90,0.00,22.0,20.4,00.0,31.0,23.7,10.0,0000.0,0011.77,0004.77,0003.90
2023-02-08 08:06:00,,0827.2,5.01,0.00,22.0,20.4,00.0,31.0,23.7,10.0,0000.0,0012.07,0004.70,0003.87
2023-02-08 08:07:00,,0827.2,4.93,0.00,22.0,20.4,00.0,30.9,23.7,10.0,0000.0,0011.94,0004.67,0003.85
2023-02-08 08:08:00,,0827.2,5.04,0.00,22.0,20.6,00.0,30.9,23.7,10.0,0000.0,0011.42,0004.61,0003.82
2023-02-08 08:09:00,,0827.4,5.02,0.00,22.1,21.5,00.0,30.9,23.9,10.0,0000.0,0011.23,0004.54,0003.80
2023-02-08 08:10:00,,0827.4,5.01,0.00,22.2,22.6,00.0,30.9,24.2,09.9,0000.0,0011.26,0004.53,0003.79
2023-02-08 08:11:00,,0827.3,5.03,0.00,22.3,22.7,00.0,31.0,24.3,09.9,0000.0,0011.51,0004.50,0003.78
2023-02-08 08:12:00,,0827.1,5.06,0.00,22.3,22.3,00.0,31.0,24.2,09.8,0000.0,0011.46,0004.50,0003.76
2023-02-08 08:13:00,,0827.0,5.02,0.00,22.3,21.9,00.0,31.0,24.2,09.8,0000.0,0011.22,0004.53,0003.74
2023-02-08 08:14:00,,0827.0,5.00,0.00,22.3,21.6,00.0,31.1,24.1,09.7,0000.0,0011.15,0004.52,0003.73
2023-02-08 08:15:00,,0827.2,4.96,0.00,22.3,21.3,00.0,31.1,24.1,09.6,0000.0,0011.50,0004.48,0003.71
2023-02-08 08:16:00,,0826.9,4.91,0.00,22.3,21.1,00.0,31.1,24.0,09.3,0000.0,0010.98,0004.41,0003.67
2023-02-08 08:17:00,,0827.1,4.97,0.00,22.2,20.8,00.0,31.1,23.9,09.4,0000.0,0010.56,0004.38,0003.64
2023-02-08 08:18:00,,0826.9,4.95,0.00,22.2,20.6,00.0,31.1,23.8,09.5,0000.0,0010.23,0004.32,0003.61
2023-02-08 08:19:00,,0826.9,5.04,0.00,22.2,20.5,00.0,31.1,23.8,09.5,0000.0,0010.06,0004.25,0003.58
2023-02-08 08:20:00,,0826.9,5.02,0.00,22.1,20.4,00.0,31.1,23.7,09.5,0000.0,0011.14,0004.21,0003.55
2023-02-08 08:21:00,,0826.9,5.01,0.00,22.1,20.2,00.0,31.1,23.6,09.5,0000.0,0010.97,0004.17,0003.52
2023-02-08 08:22:00,,0826.9,5.00,0.00,22.0,20.1,00.0,31.0,23.6,09.5,0000.0,0010.76,0004.16,0003.51
2023-02-08 08:23:00,,0826.8,4.97,0.00,22.0,20.0,00.0,31.0,23.5,09.5,0000.0,0010.68,0004.13,0003.51
2023-02-08 08:24:00,,0827.2,5.00,0.00,21.9,20.0,00.0,31.0,23.5,09.6,0000.0,0010.46,0004.10,0003.51
2023-02-08 08:25:00,,0827.1,4.99,0.00,21.9,19.9,00.0,31.0,23.4,09.5,0000.0,0010.50,0004.15,0003.51
2023-02-08 08:26:00,,0827.1,4.96,0.00,21.9,20.0,00.0,30.9,23.4,09.5,0000.0,0009.88,0004.17,0003.52
2023-02-08 08:27:00,,0827.2,4.99,0.00,21.9,21.1,00.0,30.9,23.7,09.4,0000.0,0010.11,0004.20,0003.52
2023-02-08 08:28:00,,0827.0,4.99,0.00,22.1,22.2,00.0,30.9,24.0,09.2,0000.0,0011.08,0004.18,0003.51
2023-02-08 08:29:00,,0827.2,5.01,0.00,22.2,22.5,00.0,30.9,24.1,09.2,0000.0,0011.18,0004.19,0003.50
2023-02-08 08:30:00,,0826.8,5.00,0.00,22.2,21.9,00.0,30.9,24.0,08.5,0000.0,0010.90,0004.14,0003.45
2023-02-08 08:31:00,,0826.8,5.00,0.00,22.1,21.3,00.0,31.0,23.8,07.8,0000.0,0009.58,0004.04,0003.36
2023-02-08 08:32:00,,0826.8,4.95,0.00,22.1,20.9,00.0,31.0,23.7,07.6,0000.0,0009.37,0003.91,0003.27
2023-02-08 08:33:00,,0826.9,4.99,0.00,22.0,20.6,00.0,30.9,23.6,07.6,0000.0,0008.99,0003.76,0003.15
2023-02-08 08:34:00,,0826.8,4.98,0.00,22.0,20.3,00.0,30.9,23.5,07.6,0000.0,0009.34,0003.63,0002.99
2023-02-08 08:35:00,,0826.7,4.99,0.00,21.9,20.3,00.0,30.9,23.5,07.6,0000.0,0009.24,0003.48,0002.76
2023-02-08 08:36:00,,0826.7,5.00,0.00,21.9,20.3,00.0,30.9,23.5,07.6,0000.0,0008.93,0003.28,0002.56
2023-02-08 08:37:00,,0826.7,5.00,0.00,21.9,20.3,00.0,30.9,23.5,07.6,0000.0,0008.67,0003.13,0002.34
2023-02-08 08:38:00,,0826.8,5.07,0.00,21.9,20.3,00.0,30.9,23.5,07.8,0000.0,0008.12,0002.95,0002.18
2023-02-08 08:39:00,,0826.7,5.01,0.00,21.9,20.4,00.0,30.9,23.5,07.8,0000.0,0006.64,0002.77,0002.06
2023-02-08 08:40:00,,0826.7,4.91,0.00,21.9,20.4,00.0,30.9,23.4,07.6,0000.0,0005.93,0002.60,0001.93
2023-02-08 08:41:00,,0826.6,5.03,0.00,21.9,20.3,00.0,30.9,23.5,07.5,0000.0,0005.84,0002.55,0001.86
2023-02-08 08:42:00,,0826.7,5.05,0.00,21.9,20.3,00.0,30.8,23.5,07.7,0000.0,0006.73,0002.62,0001.87
2023-02-08 08:43:00,,0826.7,4.98,0.00,21.9,20.8,00.0,30.8,23.6,07.6,0000.0,0007.20,0002.65,0001.88
2023-02-08 08:44:00,,0826.7,5.04,0.00,22.0,22.0,00.0,30.8,23.9,07.6,0000.0,0007.25,0002.67,0001.88
2023-02-08 08:45:00,,0826.7,5.01,0.00,22.1,22.9,00.0,30.8,24.2,07.5,0000.0,0006.20,0002.66,0001.89
2023-02-08 08:46:00,,0826.7,4.97,0.00,22.2,22.6,00.0,30.9,24.2,07.4,0000.0,0005.71,0002.62,0001.90
2023-02-08 08:47:00,,0826.7,4.99,0.00,22.2,22.1,00.0,30.9,24.1,07.2,0000.0,0005.47,0002.56,0001.90
2023-02-08 08:48:00,,0826.7,4.95,0.00,22.2,21.7,00.0,30.9,24.1,07.2,0000.0,0005.32,0002.54,0001.89
2023-02-08 08:49:00,,0826.7,5.02,0.00,22.2,21.4,00.0,31.0,24.0,07.3,0000.0,0005.06,0002.45,0001.86
2023-02-08 08:50:00,,0826.7,4.98,0.00,22.2,21.3,00.0,31.0,24.0,07.5,0000.0,0005.07,0002.47,0001.83
2023-02-08 08:51:00,,0826.7,5.03,0.00,22.2,21.1,00.0,31.0,23.9,07.8,0000.0,0004.95,0002.43,0001.80
2023-02-08 08:52:00,,0826.7,5.05,0.00,22.2,20.9,00.0,31.0,23.9,08.0,0000.0,0004.85,0002.38,0001.78
2023-02-08 08:53:00,,0826.7,5.02,0.00,22.2,20.8,00.0,31.0,23.9,07.8,0000.0,0004.48,0002.33,0001.76
2023-02-08 08:54:00,,0826.6,5.00,0.00,22.2,20.7,00.0,31.0,23.9,08.1,0000.0,0004.30,0002.26,0001.72
2023-02-08 08:55:00,,0826.5,4.98,0.00,22.1,20.6,00.0,31.0,23.8,07.9,0000.0,0004.48,0002.23,0001.68
2023-02-08 08:56:00,,0826.5,5.02,0.00,22.1,20.6,00.0,31.0,23.8,07.5,0000.0,0004.47,0002.20,0001.65
2023-02-08 08:57:00,,0826.5,4.99,0.00,22.1,20.6,00.0,31.0,23.8,07.3,0000.0,0004.47,0002.17,0001.62
2023-02-08 08:58:00,,0826.5,5.04,0.00,22.1,20.5,00.0,31.0,23.8,07.2,0000.0,0004.73,0002.18,0001.59
2023-02-08 08:59:00,,0826.5,4.95,0.00,22.1,20.5,00.0,31.0,23.8,07.1,0000.0,0004.89,0002.21,0001.59
